{"data":{"norad_id":43946,"intl_designator":"2019-005E","name":"JILIN-1 10","alt_names":[],"object_type":"PAYLOAD","status":"ACTIVE","operator":null,"country":"PRC","launch_date":"2019-01-21","launch_site_code":"JSC","launch_vehicle":null,"mission":null,"orbit_class":"UNKNOWN","rcs_meters":null,"size_class":null,"mass_kg":null,"dimensions":null,"purposes":[],"wikipedia_slug":null,"has_3d_model":false,"image_url":null,"decayed_at":null,"tle_current":{"epoch":"2026-09-20T04:41:43.189728Z","epoch_age_seconds":84689,"freshness":"FRESH","line1":"1 43946U 19005E   26263.19563877  .00003746  00000+0  14582-3 0  9998","line2":"2 43946  97.4796   2.0686 0006727 310.8786  49.1869 15.26616603423807","mean_motion":15.26616603,"eccentricity":0.0006727,"inclination_deg":97.4796,"raan_deg":2.0686,"arg_perigee_deg":310.8786,"mean_anomaly_deg":49.1869,"bstar":0.00014582,"rev_number":42380,"period_min":94.326237325745,"perigee_km":481.31790871012,"apogee_km":490.55283167698,"semimajor_km":6864.0723701935,"source":"CELESTRAK","updated_at":"2026-09-20T09:00:14.447762Z"}}}